Location: Unspecified
(43.1763°N, 179.4719°W)
Time: 08:30:32
(UTC-04:00)

Okean 3 - Visible Passes

Search period start: 20 May 2019 00:00
Search period end: 30 May 2019 00:00
Orbit: 576 x 602 km, 82.5° (Epoch: 19 May)

Date Brightness Start Highest point End Pass type
(mag) Time Alt. Az. Time Alt. Az. Time Alt. Az.
20 May 5.4 04:02:38 10° ESE 04:04:33 13° E 04:06:28 10° ENE visible
20 May 4.1 05:38:46 21° SSW 05:41:18 51° W 05:45:23 10° N visible
21 May 5.0 04:09:34 11° SE 04:12:20 19° E 04:15:18 10° NE visible
21 May 4.9 05:46:03 13° SW 05:49:19 34° WNW 05:53:08 10° N visible
22 May 4.5 04:16:48 11° SSE 04:20:09 28° E 04:23:43 10° NNE visible
22 May 5.6 05:54:00 10° SW 05:57:22 23° WNW 06:00:45 10° NNW visible
23 May 3.9 04:24:06 10° SSE 04:28:00 41° E 04:31:57 10° NNE visible
23 May 6.1 06:02:47 10° WSW 06:05:27 16° WNW 06:08:09 10° NNW visible
24 May 3.4 04:31:48 10° S 04:35:54 63° E 04:40:02 10° NNE visible
24 May 6.4 06:12:14 10° W 06:13:36 11° WNW 06:14:58 10° NW visible
25 May 3.4 04:39:40 10° S 04:43:49 85° W 04:48:02 10° N visible
26 May 4.1 04:47:42 10° SSW 04:51:47 55° W 04:55:55 10° N visible
27 May 4.9 04:55:56 10° SW 04:59:47 37° WNW 05:03:42 10° N visible
28 May 5.7 05:04:21 10° SW 05:07:50 25° WNW 05:11:20 10° NNW visible
29 May 6.2 05:13:04 10° WSW 05:15:55 18° WNW 05:18:48 10° NNW visible
